Regional Weather Roundup
Issued by NWS

Home | Current Version | Previous Version | Text Only | Print | Product List | Glossary Off
Versions: 1 2 3 4 5 6 7 8 9 10 11 12 13 14 15 16 17 18 19 20 21 22 23 24 25 26 27 28 29 30 31 32 33 34 35 36 37 38 39 40 41 42 43 44 45 46 47 48 49 50

000
ASUS43 KDTX 260701
RWRMI
MICHIGAN HOURLY REGIONAL WEATHER ROUNDUP
NATIONAL WEATHER SERVICE DETROIT/PONTIAC MI
200 AM EST MON JAN 26 2015

NOTE: "FAIR" INDICATES FEW OR NO CLOUDS BELOW 12,000 FEET WITH NO
SIGNIFICANT WEATHER AND/OR OBSTRUCTION TO VISIBILITY.

MIZ047>049-052>055-059>063-066>070-074>076-081>083-260800-
SOUTHEAST LOWER MICHIGAN

CITY           SKY/WX    TMP DP  RH WIND       PRES   REMARKS
ADRIAN         FAIR      17   9  70 NE10      29.94F WCI   5
ALMA           CLEAR     10   7  87 N5        30.01F WCI   2
ANN ARBOR      MOCLDY    16   7  67 NE10      29.95F WCI   4
BAD AXE        FLURRIES  17  13  84 E6        30.00F WCI   8
CARO           FLURRIES  15  10  80 E5        30.00F WCI   7
DETROIT CITY   MOCLDY    16   2  54 NE10      29.97F WCI   4
DETROIT        CLOUDY    16   3  56 N9        29.96F WCI   4
FLINT          PTCLDY    16   9  74 NE9       29.99F WCI   4
GROSSE ILE     MOCLDY    16   5  62 N14       29.94F WCI   1
HILLSDALE      PTCLDY    14   7  73 NE7       29.90F WCI   4
HOWELL         PTCLDY    13  10  85 NE7       29.95F WCI   3

CITY           SKY/WX    TMP DP  RH WIND       PRES   REMARKS
JACKSON        PTCLDY    14   9  80 NE9       29.94F WCI   2
LAMBERTVILLE   MOCLDY    19   5  53 NE7       29.93F WCI  10
LANSING        CLOUDY    14   9  80 NE7       29.98F WCI   4
LAPEER         FAIR      12   8  81 NE3       29.98F
MASON          CLEAR     13   9  82 NE6       29.96F WCI   4
MONROE         MOCLDY    18   5  57 NE9       29.92F WCI   6
MT. CLEMENS    MOCLDY    14   3  62 NE9       29.96F WCI   2
PONTIAC        PTCLDY    13   7  77 NE9       29.94F WCI   1
PORT HOPE        N/A     20  12  71 E13       30.00F WCI   7
PORT HURON     MOCLDY    12   5  73 NE7       29.99F WCI   2
TRI CITIES     CLEAR     12   7  80 N7        30.01F WCI   1
TROY           MOCLDY    17   8  65 NE8       29.98F WCI   7
SAGINAW HB     FLURRIES  18  14  86 NE5       30.00F WCI  11
$$
MIZ043>046-050>051-056>058-064>065-071>073-077>080-260800-
SOUTHWEST LOWER MICHIGAN

CITY           SKY/WX    TMP DP  RH WIND       PRES   REMARKS
BATTLE CREEK   PTCLDY    16   8  71 NE8       29.95F WCI   5
BENTON HARBOR  CLEAR     15   9  76 E7        29.97F WCI   5
BIG RAPIDS     PTCLDY     6   2  83 CALM      29.98S
COLDWATER      CLEAR     14   9  79 NE9       29.92F WCI   2
FREMONT        FAIR      10   1  68 NE3       30.00R
HOLLAND        CLEAR     15   9  76 E5        29.99F WCI   8
GRAND RAPIDS   CLEAR     14   8  77 NE7       29.98F WCI   4
IONIA          FAIR      14  10  83 NE7       29.97F WCI   3
KALAMAZOO      CLEAR     15   8  73 NE6       29.96F WCI   6
LUDINGTON      CLEAR      8   2  77 E3        30.03F
MARSHALL       PTCLDY    13   9  81 CALM      29.94F
MOUNT PLEASANT FLURRIES   9   5  83 CALM      30.00F
MUSKEGON       CLEAR     13   5  70 E8        30.01F WCI   2
SOUTH HAVEN    CLEAR     17  10  74 E7        29.98S WCI   7
$$
MIZ016>042-260800-
NORTHERN LOWER MICHIGAN

CITY           SKY/WX    TMP DP  RH WIND       PRES   REMARKS
ALPENA         PTCLDY    -4  -9  79 CALM      30.04F
BEAVER ISLAND  PTCLDY    -3  -6  88 CALM      30.04S
BELLAIRE       PTCLDY    -4  -8  83 CALM      30.05S
CADILLAC       PTCLDY    -1  -4  87 NE3       29.96S
CHARLEVOIX     PTCLDY     1  -2  88 SE5       30.05F WCI  -9
FRANKFORT      PTCLDY     8   3  79 CALM      30.04S
GAYLORD        MOCLDY    -2  -6  83 CALM      29.97F
GRAYLING       PTCLDY   -12 -18  74 CALM      29.99F
HARBOR SPRINGS PTCLDY    -4  -9  82 NE5       30.03F WCI -15
HOUGHTON LAKE  PTCLDY    -4  -7  87 E3        29.98F
MANISTEE       CLEAR      3   0  85 CALM      30.03S
OSCODA         CLOUDY    10   6  83 CALM      30.01F
PELLSTON       MOCLDY   -14 -19  79 CALM      30.05S
ROGERS CITY    PTCLDY    -3  -6  89 CALM      30.06S
TRAVERSE CITY  PTCLDY     6   1  80 SE8       30.03S WCI  -7
$$
MIZ007>008-015-260800-
EASTERN UPPER MICHIGAN

CITY           SKY/WX    TMP DP  RH WIND       PRES   REMARKS
KINROSS        MOCLDY    -4  -6  92 E5        30.04F WCI -15
MACKINAC ISLAN MOCLDY     5   1  84 S6        30.03S WCI  -5
NEWBERRY       MOCLDY    -4  -8  84 CALM      30.02F
S. S. MARIE    PTCLDY    -5 -10  79 E7        30.05S WCI -19
MUNISING         N/A      8  -2  63 SW7       30.01F WCI  -3
$$
MIZ004>006-011>014-085-260800-
CENTRAL UPPER MICHIGAN

CITY           SKY/WX    TMP DP  RH WIND       PRES   REMARKS
MANISTIQUE     MOCLDY    -4  -7  87 E3        30.03F
ESCANABA       PTCLDY    -2  -6  84 CALM      30.00F
MENOMINEE      PTCLDY     5   3  92 NW3       30.01F
SAWYER-GWINN   MOCLDY     0  -4  83 CALM      29.96F
$$
MIZ001>003-009>011-084-260800-
WESTERN UPPER MICHIGAN

CITY           SKY/WX    TMP DP  RH WIND       PRES   REMARKS
IRON MOUNTAIN  PTCLDY    -2  -6  83 CALM      29.96F
HOUGHTON       CLOUDY     9   3  77 SW8       29.91F WCI  -3
COPPER HARBOR    N/A     16   8  71 SW3       29.95F
IRONWOOD       CLOUDY    16   7  67 S8        29.86F WCI   5
$$

ABBREVIATIONS USED IN REMARKS
   TC - TEMPERATURE IN CELSIUS
  WCI - WIND CHILL INDEX
   HX - HEAT INDEX
  VSB - VISIBILITY




USA.gov is the U.S. government's official web portal to all federal, state and local government web resources and services.